Location: Central Coast
(33.3208°S, 151.2336°E)
Time: 18:52:16
(UTC+11:00)

Tiangong 1 - Pass Details

Date: 16 October 2017
Orbit: 292 x 319 km, 42.8° (Epoch: 23 October)

Event Time Altitude Azimuth Distance (km) Brightness Sun altitude
Exits shadow 04:21:40 12° 172° (S) 1,095 3.8 -22.8°
Drops below altitude 10° 04:22:14 10° 160° (SSE) 1,183 4.2 -22.7°
Sets 04:25:00 0° 127° (SE) 2,017 6.2 -22.2°
